Location: Little Suamico
(44.7175°N, 88.0093°W)
Time: 19:56:21
(UTC+00:00)

X-37B - Pass Details

Date: 23 April 2021
Orbit: 386 x 389 km, 45.0° (Epoch: 08 May)

Event Time Altitude Azimuth Distance (km) Brightness Sun altitude
Exits shadow 07:50:36 12° 82° (E) 1,297 3.7 -26.5°
Drops below altitude 10° 07:50:53 10° 82° (E) 1,415 3.9 -26.5°
Sets 07:52:58 0° 80° (E) 2,271 5.1 -26.3°
